This demonstration page uses our WeatherBlox Daily Observations layout. Learn more.

Left ArrowRight Arrow

39.12711, -84.51439

Hourly Observations for December 1, 2018

Temp ( °F °C ) Dew Point ( °F °C ) Humidity (%) Winds ( mph kmh ) Pressure ( in mb ) Visibility ( mi km ) Precip ( " mm )
12:53 am 00:53 Cloudy 44 6.7 43 6.1 96 96 NE 6 9 30.03 1017 7 11 0.00 0.00
1:53 am 01:53 Cloudy 45 7.2 44 6.7 97 97 NE 5 7 30.00 1016 8 13 0.00 0.00
2:53 am 02:53 Cloudy 46 7.8 44 6.7 93 93 E 5 7 29.98 1015 9 14 0.00 0.00
3:53 am 03:53 Cloudy with Mist and Fog 46 7.8 44 6.7 93 93 ENE 5 7 29.93 1014 5 8 0.00 0.00
4:53 am 04:53 Cloudy with Mist and Fog 46 7.8 45 7.2 96 96 NE 5 7 29.91 1013 5 8 0.00 0.00
5:46 am 05:46 Cloudy with Heavy Rain 45 7.2 45 7.2 100 100 NE 6 9 29.91 1013 3 4 0.11 2.79
5:53 am 05:53 Cloudy with Heavy Rain 45 7.2 45 7.2 100 100 NE 7 11 29.88 1012 3 4 0.14 3.56
6:04 am 06:04 Cloudy with Rain 45 7.2 45 7.2 100 100 NNE 6 9 29.91 1013 3 5 0.01 0.25
6:11 am 06:11 Cloudy with Rain 45 7.2 45 7.2 100 100 NE 9 15 29.88 1012 2 3 0.04 1.02
6:31 am 06:31 Cloudy with Light Rain 45 7.2 45 7.2 100 100 NE 7 11 29.85 1011 3 5 0.07 1.78
6:53 am 06:53 Cloudy with Heavy Rain 46 7.8 45 7.2 96 96 Calm 29.87 1012 3 5 0.10 2.54
7:53 am 07:53 Cloudy with Rain 46 7.8 46 7.8 100 100 NE 3 6 29.87 1011 4 6 0.34 8.64
8:42 am 08:42 Cloudy with Heavy Rain 46 7.8 46 7.8 100 100 NNE 6 9 29.88 1012 3 4 0.12 3.05
8:53 am 08:53 Cloudy with Rain 46 7.8 46 7.8 100 100 NNE 8 13 29.84 1010 3 5 0.15 3.81
9:53 am 09:53 Cloudy with Light Rain 47 8.3 47 8.3 100 100 N 5 7 29.82 1010 4 6 0.15 3.81
10:53 am 10:53 Cloudy with Heavy Rain 49 9.4 49 9.4 100 100 VRB 6 9 29.78 1008 3 5 0.12 3.05
11:01 am 11:01 Cloudy with Light Rain 50 10 49 9.4 96 96 Calm 29.80 1009 3 5 0.01 0.25
11:12 am 11:12 Cloudy with Rain 50 10 50 10 100 100 SE 3 6 29.80 1009 3 5 0.03 0.76
11:53 am 11:53 Cloudy with Rain 50 10 50 10 100 100 Calm 29.76 1008 2 3 0.14 3.56
12:53 pm 12:53 Cloudy with Light Rain 51 10.6 51 10.6 100 100 Calm 29.73 1007 2 2 0.07 1.78
1:02 pm 13:02 Cloudy with Light Rain 51 10.6 51 10.6 100 100 NNE 3 6 29.74 1007 2 3 0.00 0.03
1:53 pm 13:53 Cloudy with Light Rain 51 10.6 51 10.6 100 100 Calm 29.71 1006 2 3 0.02 0.51
2:53 pm 14:53 Cloudy with Light Rain 53 11.7 53 11.7 100 100 ESE 3 6 29.64 1004 2 3 0.22 5.59
3:53 pm 15:53 Cloudy with Light Rain 54 12.2 54 12.2 100 100 SSE 14 22 29.58 1002 7 11 0.18 4.57
4:53 pm 16:53 Mostly Cloudy 56 13.3 56 13.3 100 100 VRB 6 9 29.59 1002 10 16 0.00 0.03
5:53 pm 17:53 Cloudy 55 12.8 54 12.2 96 96 SSE 8 13 29.60 1003 10 16 0.00 0.00
6:53 pm 18:53 Mostly Cloudy with Light Rain 56 13.3 55 12.8 97 97 VRB 6 9 29.55 1001 10 16 0.03 0.76
7:31 pm 19:31 Mostly Clear with Thunderstorms 57 13.9 57 13.9 100 100 VRB 7 11 29.53 1000 10 16 0.00 0.03
7:46 pm 19:46 Mostly Cloudy with Thunderstorms 56 13.3 56 13.3 100 100 SSE 12 19 29.53 1000 3 5 0.10 2.54
7:53 pm 19:53 Mostly Cloudy with Thunderstorms 57 13.9 57 13.9 100 100 S 15 24 29.51 999 7 11 0.11 2.79
8:18 pm 20:18 Partly Cloudy 57 13.9 57 13.9 100 100 S 9 15 29.53 1000 8 13 0.00 0.03
8:53 pm 20:53 Mostly Cloudy 57 13.9 55 12.8 93 93 S 9 15 29.53 1000 10 16 0.00 0.03
9:53 pm 21:53 Cloudy 57 13.9 56 13.3 96 96 S 7 11 29.51 999 10 16 0.00 0.00
10:53 pm 22:53 Mostly Cloudy 57 13.9 56 13.3 96 96 S 7 11 29.51 999 10 16 0.00 0.03
11:23 pm 23:23 Cloudy 58 14.4 56 13.3 93 93 S 8 13 29.53 1000 10 16 0.00 0.00
11:44 pm 23:44 Partly Cloudy 57 13.9 56 13.3 96 96 S 7 11 29.50 999 10 16 0.00 0.00
11:53 pm 23:53 Mostly Clear 58 14.4 56 13.3 93 93 S 5 7 29.51 999 10 16 0.00 0.00

Powered by AerisWeather